DW5225 Weather Reports


time (UTC)temp
C
wind
direction
speed
KPH
gust
KPH
rain 1hr
cm
rain 24hr
cm
rain mn
cm
humidity
%
barometer
mb
20260507210049 7 0 0.0 0.0 0.00 0.15 0.15 88 1016.9
20260507204540 8 0 0.0 0.0 0.00 0.15 0.15 89 1016.9
20260507203043 8 0 0.0 0.0 0.00 0.15 0.15 88 1016.9
20260507201540 8 0 0.0 0.0 0.00 0.15 0.15 89 1016.8
20260507200038 8 0 0.0 0.0 0.00 0.15 0.15 89 1016.6
20260507194612 8 0 0.0 0.0 0.00 0.15 0.15 89 1016.5
20260507193043 8 0 0.0 0.0 0.08 0.15 0.15 88 1016.4
20260507191540 8 0 0.0 0.0 0.13 0.15 0.15 88 1015.9
20260507190049 8 0 0.0 0.0 0.13 0.15 0.15 87 1015.6
20260507184540 8 0 0.0 0.0 0.13 0.13 0.13 85 1015.5
20260507183047 8 0 0.0 0.0 0.05 0.05 0.05 84 1015.5
20260507181551 10 0 0.0 0.0 0.00 0.00 0.00 79 1015.3
20260507180042 11 0 0.0 0.0 0.00 0.00 0.00 73 1015.0
20260507174552 11 0 0.0 0.0 0.00 0.00 0.00 71 1014.6
20260507173103 11 0 0.0 0.0 0.00 0.00 0.00 69 1014.4
20260507171545 11 0 0.0 0.0 0.00 0.00 0.00 69 1014.2
20260507170039 12 0 0.0 0.0 0.00 0.00 0.00 65 1014.0
20260507164549 12 0 0.0 0.0 0.00 0.00 0.00 63 1014.0
20260507163041 13 0 0.0 0.0 0.00 0.00 0.00 63 1013.7
20260507161556 13 0 0.0 0.0 0.00 0.00 0.00 62 1013.6
20260507160042 13 0 0.0 0.0 0.00 0.00 0.00 59 1013.5
20260507154542 13 0 0.0 0.0 0.00 0.00 0.00 57 1013.4
20260507153038 13 0 0.0 0.0 0.00 0.00 0.00 60 1013.4
20260507151542 12 0 0.0 0.0 0.00 0.00 0.00 61 1013.4
20260507150042 13 0 0.0 0.0 0.00 0.00 0.00 59 1013.4
20260507144542 13 0 0.0 0.0 0.00 0.00 0.00 57 1013.2
20260507143040 13 0 0.0 0.0 0.00 0.00 0.00 54 1013.2
20260507141545 13 0 0.0 0.0 0.00 0.00 0.00 53 1013.2
20260507140038 13 0 0.0 0.0 0.00 0.00 0.00 55 1013.0
20260507134544 13 0 0.0 0.0 0.00 0.00 0.00 54 1013.1
20260507133042 13 0 0.0 0.0 0.00 0.00 0.00 56 1013.0
20260507131539 13 0 0.0 0.0 0.00 0.00 0.00 58 1013.0
20260507130039 12 0 0.0 0.0 0.00 0.00 0.00 64 1013.1
20260507124538 12 0 0.0 0.0 0.00 0.00 0.00 62 1013.4
20260507123045 13 0 0.0 0.0 0.00 0.00 0.00 57 1013.1
20260507121544 14 0 0.0 0.0 0.00 0.00 0.00 55 1013.0
20260507120046 14 0 0.0 0.0 0.00 0.00 0.00 54 1012.8
20260507114542 13 0 0.0 0.0 0.00 0.00 0.00 56 1012.8
20260507113046 13 0 0.0 0.0 0.00 0.00 0.00 57 1013.0
20260507111547 13 0 0.0 0.0 0.00 0.00 0.00 55 1013.0
20260507110046 13 0 0.0 0.0 0.00 0.00 0.00 57 1013.0
20260507104542 13 0 0.0 0.0 0.00 0.00 0.00 58 1013.1
20260507103041 12 0 0.0 0.0 0.00 0.00 0.00 62 1013.2
20260507101541 12 0 0.0 0.0 0.00 0.00 0.00 68 1013.4
20260507100042 11 0 0.0 0.0 0.00 0.00 0.00 70 1013.4
20260507094537 11 0 0.0 0.0 0.00 0.00 0.00 71 1013.4
20260507093036 11 0 0.0 0.0 0.00 0.00 0.00 73 1013.4
20260507091545 11 0 0.0 0.0 0.00 0.00 0.00 66 1013.4
20260507090044 11 0 0.0 0.0 0.00 0.00 0.00 74 1013.4
20260507084541 10 0 0.0 0.0 0.00 0.00 0.00 78 1013.6
20260507083040 9 0 0.0 0.0 0.00 0.00 0.00 80 1013.5
20260507081544 8 0 0.0 0.0 0.00 0.00 0.00 81 1013.5
20260507080044 8 0 0.0 0.0 0.00 0.00 0.00 81 1013.5
20260507074543 8 0 0.0 0.0 0.00 0.00 0.00 82 1013.4
20260507073050 8 0 0.0 0.0 0.00 0.00 0.00 83 1013.4
20260507071540 8 0 0.0 0.0 0.00 0.00 0.00 82 1013.2
20260507070043 8 0 0.0 0.0 0.00 0.00 0.00 81 1013.1
20260507064546 8 0 0.0 0.0 0.00 0.00 0.00 81 1013.0
20260507063046 8 0 0.0 0.0 0.00 0.00 0.00 81 1013.1
20260507061542 8 0 0.0 0.0 0.00 0.00 0.00 81 1012.7
20260507060043 8 0 0.0 0.0 0.00 0.00 0.00 82 1012.8
20260507054540 8 0 0.0 0.0 0.00 0.00 0.00 81 1012.8
20260507053041 8 0 0.0 0.0 0.00 0.00 0.00 81 1012.5
20260507051540 7 0 0.0 0.0 0.00 0.00 0.00 82 1012.4
20260507050045 7 0 0.0 0.0 0.00 0.00 0.00 84 1012.2
20260507044542 7 0 0.0 0.0 0.00 0.00 0.00 84 1012.1
20260507043044 6 0 0.0 0.0 0.00 0.00 0.00 84 1012.0
20260507041545 6 0 0.0 0.0 0.00 0.00 0.00 84 1011.9
20260507040040 6 0 0.0 0.0 0.00 0.00 0.00 83 1011.8
20260507034546 6 0 0.0 0.0 0.00 0.00 0.00 83 1011.6
20260507033100 6 0 0.0 0.0 0.00 0.00 0.00 82 1011.6
20260507031542 6 0 0.0 0.0 0.00 0.00 0.00 82 1011.5
20260507030041 6 0 0.0 0.0 0.00 0.00 0.00 83 1011.6
20260507024551 6 0 0.0 0.0 0.00 0.00 0.00 82 1011.5
20260507023040 6 0 0.0 0.0 0.00 0.00 0.00 82 1011.5
20260507021538 6 0 0.0 0.0 0.00 0.00 0.00 81 1011.5
20260507020042 7 0 0.0 0.0 0.00 0.00 0.00 81 1011.3
20260507014540 7 0 0.0 0.0 0.00 0.00 0.00 81 1011.1
20260507013041 7 0 0.0 0.0 0.00 0.00 0.00 81 1011.1
20260507011541 7 0 0.0 0.0 0.00 0.00 0.00 81 1011.1
20260507010041 7 0 0.0 0.0 0.00 0.00 0.00 82 1011.1
20260507004536 7 0 0.0 0.0 0.00 0.00 0.00 81 1011.0
20260507003042 7 0 0.0 0.0 0.00 0.00 0.00 81 1010.9
20260507001604 7 0 0.0 0.0 0.00 0.00 0.00 80 1010.9
20260507000042 8 0 0.0 0.0 0.00 0.00 0.00 79 1010.9
20260506234549 8 0 0.0 0.0 0.00 0.00 0.00 77 1010.7
20260506233040 8 0 0.0 0.0 0.00 0.00 0.00 76 1010.8
20260506231538 8 0 0.0 0.0 0.00 0.00 0.00 74 1010.9
20260506230035 8 0 0.0 0.0 0.00 0.00 0.00 75 1010.8
20260506224600 8 0 0.0 0.0 0.00 0.00 0.00 75 1010.8
20260506223040 9 0 0.0 0.0 0.00 0.00 0.00 76 1010.9
20260506221541 9 0 0.0 0.0 0.00 0.00 0.00 77 1010.8
20260506220045 9 0 0.0 0.0 0.00 0.00 0.00 75 1010.8
20260506214538 10 0 0.0 0.0 0.00 0.00 0.00 74 1010.8
20260506213042 10 0 0.0 0.0 0.00 0.00 0.00 71 1010.6
20260506211550 10 0 0.0 0.0 0.00 0.00 0.00 69 1010.3